Temp
5 5 6 7 8 8 8 8 8 8 8 8 8 9 9 9 8 8 8 8 7 6 6 6 6 7 6 6 7 8 8 8 8 8 8 9 10 11 10 11 12 12 13 16 17 18 18
6 6 5 5 6 9 9 9 8 8 8 8 8 9 9 8 8 8 8 8 7 6 6 6 6 6 6 7 7 8 8 8 8 8 9 9 10 12 12 12 11 14 14 14 17 17 17
6 6 6 6 8 10 10 9 8 8 8 8 8 9 9 8 8 8 9 9 8 7 6 6 6 6 6 6 6 7 8 7 7 7 9 9 9 11 12 11 13 14 13 14 15 17 17
8 7 8 9 10 10 10 10 9 8 8 8 8 9 9 9 9 9 9 9 9 7 6 6 6 6 6 6 6 7 7 7 7 7 8 8 9 10 11 12 13 12 12 12 14 15 16
9 8 9 10 10 10 10 10 9 9 8 8 8 9 9 9 9 9 9 9 8 7 6 6 6 6 6 6 6 6 6 6 7 7 7 7 8 9 11 10 10 12 10 12 14 14 15
9 9 9 9 10 10 10 10 9 9 9 9 8 9 9 9 9 9 9 9 8 8 7 6 6 5 5 5 5 6 6 6 6 7 7 8 7 6 7 7 7 10 12 13 12 14 15
9 9 9 9 9 9 9 10 9 9 9 9 9 9 9 9 9 9 9 9 9 8 7 7 6 5 4 5 5 6 6 7 7 7 7 7 6 6 7 8 11 13 12 12 13 13 14
9 9 9 9 9 9 9 9 9 9 9 9 9 9 9 9 9 10 9 9 8 8 7 7 6 5 5 5 5 5 6 6 7 7 8 6 5 7 8 9 11 11 12 13 13 13 14
9 9 9 9 9 9 9 9 9 9 9 9 9 9 9 9 9 9 9 8 8 8 7 8 7 6 6 6 5 5 6 6 6 6 7 6 8 9 9 10 11 11 11 11 12 14 15
9 9 9 9 9 9 9 9 9 9 9 9 9 9 9 9 9 9 8 8 7 7 4 7 8 8 7 7 6 5 5 6 5 6 8 8 9 10 10 11 11 12 12 13 12 11 10
10 10 10 9 9 9 9 9 9 9 9 9 9 9 9 9 9 8 8 8 7 7 3 10 9 8 8 8 6 5 5 5 5 6 5 6 9 10 11 11 11 13 13 12 12 11 10
10 10 10 10 9 9 9 9 9 9 9 9 9 9 9 9 9 8 8 8 7 4 3 10 10 9 9 8 7 7 6 6 7 7 8 8 11 10 11 12 11 12 13 12 11 10 7
9 10 10 10 10 10 9 9 9 10 10 10 10 10 9 9 8 8 8 8 4 3 9 10 10 10 10 8 9 8 7 6 8 7 7 9 10 10 10 11 11 11 10 6 8 7 8
9 9 10 10 10 10 9 9 10 10 10 11 11 10 10 9 8 8 8 5 4 7 10 11 11 10 10 11 10 9 10 9 10 10 6 6 6 9 9 9 11 11 10 7 10 7 7
9 9 10 10 10 9 9 10 10 10 11 11 11 11 10 9 9 9 8 3 4 8 9 9 9 10 11 12 12 11 10 9 9 9 10 7 8 10 9 9 10 12 9 11 8 7 6
9 9 9 10 10 10 10 10 10 10 11 11 11 11 10 10 10 9 5 7 8 10 9 10 10 11 11 11 11 12 10 9 9 10 10 10 8 10 10 10 11 12 11 10 7 11 12
9 9 9 9 9 10 10 10 10 11 11 11 11 10 11 11 10 10 4 6 10 10 10 9 10 10 10 11 11 10 9 9 8 8 9 10 8 9 10 10 11 10 11 11 10 9 10
9 9 9 9 9 10 10 10 10 11 11 11 11 7 11 11 9 7 6 9 9 10 10 10 10 10 10 10 10 10 9 8 9 9 9 10 8 6 10 9 10 9 10 10 9 13 9
8 8 8 8 9 9 10 10 10 11 12 11 11 12 11 11 7 5 9 9 9 9 10 10 10 11 11 11 11 11 9 9 9 8 9 9 9 5 8 9 9 10 11 11 10 7 10
8 8 8 8 8 9 9 10 10 11 11 11 11 6 11 11 11 9 10 10 10 9 10 10 10 11 10 12 10 11 10 9 9 9 9 8 8 9 9 10 9 10 11 11 10 6 10
7 7 7 7 8 8 9 9 10 11 11 11 11 7 9 6 8 9 11 10 11 9 10 11 10 9 9 10 10 10 9 9 10 10 10 8 8 7 9 9 10 11 10 10 10 11 10
6 6 7 7 8 8 8 9 10 10 11 11 10 9 10 9 10 10 9 10 10 9 8 9 9 9 7 8 8 8 7 7 8 7 10 7 7 7 9 9 9 10 10 9 10 11 11
5 6 6 7 7 8 8 9 9 10 11 10 10 9 9 9 8 8 8 9 9 9 9 9 8 8 8 7 8 8 9 8 8 7 6 7 6 5 10 9 9 10 8 8 9 10 10
5 5 6 6 7 8 8 8 9 9 10 10 10 9 9 8 8 8 10 10 9 8 9 8 8 8 7 8 8 9 9 9 8 6 7 7 7 4 4 8 9 11 9 8 10 10 10
5 5 6 6 6 7 7 8 8 8 9 9 10 9 9 7 9 9 10 9 9 9 8 8 7 7 7 7 6 7 6 8 7 6 6 5 6 5 6 7 10 10 10 10 10 11 10
6 5 6 6 6 6 7 7 7 8 8 8 9 9 9 8 7 9 9 10 7 6 6 7 7 7 7 6 7 9 9 10 9 8 7 7 5 6 6 9 12 11 9 10 10 9 10
5 5 6 6 7 6 6 6 7 7 8 8 8 9 9 8 8 9 8 7 9 8 6 7 7 7 7 5 6 7 8 8 9 10 8 5 5 6 6 7 8 10 9 10 11 10 10
5 5 5 7 7 6 6 6 6 7 7 7 7 8 8 8 7 8 8 8 8 8 6 7 6 6 5 6 6 6 6 7 7 9 8 7 5 5 5 7 9 9 8 9 9 9 10
4 4 4 5 6 7 5 5 6 6 6 7 7 7 7 8 7 7 7 8 8 8 8 7 7 7 7 4 4 4 6 5 6 8 8 7 7 8 7 7 9 9 10 10 10 10 9
Height
1540 1538 1536 1534 1533 1532 1531 1530 1529 1528 1527 1526 1524 1523 1521 1519 1516 1512 1509 1507 1504 1501 1497 1495 1492 1491 1491 1494 1492 1490 1489 1491 1494 1498 1502 1505 1507 1510 1511 1509 1512 1511 1508 1508 1509 1506 1504
1541 1539 1537 1534 1531 1530 1529 1529 1527 1526 1525 1525 1523 1521 1520 1518 1515 1512 1508 1505 1503 1501 1498 1495 1494 1493 1494 1495 1492 1491 1490 1491 1494 1497 1501 1504 1505 1506 1507 1508 1509 1505 1506 1507 1508 1505 1504
1540 1538 1536 1532 1530 1529 1528 1527 1525 1525 1524 1523 1521 1520 1518 1517 1514 1511 1507 1504 1502 1500 1498 1496 1494 1494 1493 1494 1492 1491 1490 1491 1495 1497 1500 1502 1504 1504 1505 1506 1505 1505 1510 1507 1505 1504 1504
1540 1538 1535 1531 1529 1528 1526 1525 1524 1523 1522 1521 1519 1518 1517 1516 1513 1510 1507 1503 1501 1500 1498 1497 1495 1495 1493 1492 1492 1492 1491 1492 1494 1495 1497 1499 1502 1501 1502 1502 1500 1503 1509 1515 1503 1501 1503
1541 1537 1534 1531 1528 1527 1525 1523 1522 1521 1520 1519 1517 1516 1515 1514 1512 1509 1506 1503 1501 1499 1497 1496 1496 1494 1494 1494 1493 1493 1494 1493 1493 1495 1498 1497 1501 1499 1499 1503 1507 1503 1516 1510 1506 1501 1503
1540 1537 1535 1531 1528 1526 1524 1522 1521 1519 1518 1517 1516 1515 1514 1513 1512 1509 1506 1503 1501 1499 1497 1497 1496 1498 1497 1496 1495 1495 1495 1495 1496 1498 1498 1497 1496 1500 1503 1509 1520 1509 1509 1506 1510 1503 1504
1540 1537 1534 1531 1528 1526 1523 1521 1519 1517 1516 1514 1514 1512 1512 1511 1510 1508 1505 1502 1503 1501 1497 1497 1498 1497 1496 1495 1497 1496 1496 1497 1497 1499 1500 1500 1503 1503 1499 1501 1498 1496 1503 1507 1504 1500 1505
1538 1536 1533 1531 1528 1526 1523 1520 1518 1516 1514 1512 1511 1510 1509 1509 1507 1506 1504 1503 1501 1501 1499 1497 1496 1497 1496 1496 1496 1496 1497 1499 1498 1499 1499 1503 1504 1498 1500 1502 1500 1500 1502 1506 1504 1500 1503
1536 1535 1533 1530 1528 1525 1522 1520 1516 1514 1512 1510 1508 1508 1507 1506 1505 1503 1502 1502 1499 1498 1499 1498 1498 1497 1496 1497 1497 1496 1498 1498 1500 1500 1500 1504 1495 1496 1500 1500 1501 1499 1503 1507 1506 1502 1501
1534 1533 1532 1530 1527 1525 1522 1519 1516 1513 1510 1508 1506 1505 1504 1504 1504 1501 1500 1499 1498 1498 1506 1499 1496 1497 1497 1496 1497 1498 1497 1499 1501 1501 1499 1500 1494 1493 1497 1498 1497 1499 1493 1495 1501 1508 1522
1533 1531 1530 1528 1526 1524 1521 1518 1514 1511 1508 1505 1503 1502 1502 1500 1501 1500 1500 1498 1497 1498 1530 1495 1496 1498 1495 1496 1500 1499 1497 1497 1497 1496 1504 1500 1491 1492 1494 1492 1492 1488 1484 1489 1497 1503 1511
1532 1530 1529 1527 1524 1522 1520 1516 1513 1510 1506 1503 1501 1500 1500 1499 1499 1499 1498 1497 1498 1511 1531 1495 1492 1494 1496 1495 1496 1497 1497 1497 1493 1493 1492 1495 1491 1491 1490 1488 1488 1482 1483 1490 1497 1506 1534
1530 1529 1527 1525 1523 1520 1518 1515 1511 1508 1504 1500 1499 1498 1498 1498 1499 1497 1497 1497 1510 1526 1499 1497 1492 1491 1491 1493 1491 1493 1494 1497 1494 1498 1495 1489 1489 1487 1486 1487 1486 1483 1492 1530 1528 1536 1531
1527 1526 1525 1524 1522 1519 1516 1513 1510 1506 1502 1498 1498 1498 1497 1497 1497 1496 1496 1500 1521 1505 1496 1491 1489 1487 1489 1484 1486 1488 1487 1491 1488 1488 1501 1502 1511 1491 1489 1488 1485 1485 1495 1520 1518 1536 1531
1523 1524 1523 1522 1520 1518 1515 1512 1509 1505 1500 1497 1497 1497 1497 1496 1495 1495 1497 1514 1515 1502 1498 1495 1490 1489 1485 1482 1482 1483 1487 1490 1488 1487 1490 1500 1498 1488 1490 1491 1487 1486 1500 1495 1511 1520 1532
1521 1520 1520 1520 1518 1516 1514 1511 1508 1504 1499 1497 1497 1497 1496 1495 1495 1495 1498 1504 1500 1497 1496 1494 1494 1486 1489 1485 1483 1481 1487 1489 1489 1486 1485 1487 1500 1491 1487 1487 1486 1485 1490 1504 1512 1515 1514
1518 1517 1517 1517 1516 1514 1512 1509 1506 1502 1498 1496 1496 1496 1496 1496 1495 1495 1508 1504 1496 1495 1495 1495 1493 1491 1488 1487 1483 1485 1491 1491 1488 1487 1486 1485 1493 1499 1493 1493 1491 1493 1494 1496 1500 1506 1510
1514 1514 1514 1514 1513 1512 1510 1508 1505 1501 1498 1496 1496 1497 1496 1495 1497 1497 1502 1498 1497 1495 1494 1493 1492 1490 1489 1487 1486 1485 1489 1490 1487 1487 1487 1486 1492 1507 1496 1494 1492 1491 1493 1496 1509 1494 1506
1510 1512 1512 1512 1511 1510 1509 1506 1504 1500 1497 1495 1494 1495 1496 1495 1501 1503 1499 1498 1497 1496 1495 1493 1492 1490 1487 1486 1488 1485 1488 1487 1486 1487 1487 1487 1492 1515 1506 1499 1494 1493 1492 1492 1496 1503 1501
1506 1508 1509 1510 1509 1508 1507 1505 1503 1499 1496 1495 1494 1498 1496 1495 1495 1496 1496 1497 1497 1495 1495 1494 1492 1489 1489 1485 1485 1487 1488 1487 1486 1486 1486 1486 1490 1491 1500 1494 1494 1494 1492 1493 1498 1515 1505
1502 1505 1506 1507 1507 1506 1505 1504 1501 1499 1496 1495 1495 1497 1497 1500 1496 1496 1496 1496 1494 1497 1494 1493 1493 1493 1492 1491 1490 1490 1488 1488 1486 1485 1484 1486 1493 1495 1492 1492 1490 1490 1493 1494 1496 1496 1503
1498 1501 1503 1504 1504 1504 1504 1502 1500 1498 1496 1495 1495 1495 1496 1495 1495 1496 1497 1496 1495 1496 1497 1495 1495 1494 1493 1495 1496 1495 1495 1494 1493 1487 1485 1486 1497 1496 1494 1494 1494 1494 1494 1496 1496 1495 1496
1494 1498 1500 1501 1502 1502 1502 1501 1499 1497 1496 1494 1494 1495 1495 1495 1495 1497 1499 1498 1497 1496 1497 1496 1496 1496 1495 1496 1495 1495 1494 1494 1493 1493 1492 1490 1496 1505 1495 1495 1494 1497 1497 1497 1496 1496 1496
1490 1494 1497 1498 1499 1499 1499 1499 1498 1497 1496 1495 1494 1494 1494 1496 1495 1497 1496 1496 1497 1497 1497 1497 1496 1494 1497 1496 1495 1494 1494 1493 1493 1493 1492 1492 1495 1505 1513 1498 1505 1491 1491 1491 1491 1492 1493
1485 1489 1492 1494 1495 1496 1497 1498 1498 1497 1496 1496 1495 1494 1494 1496 1494 1496 1496 1496 1497 1497 1497 1497 1497 1497 1496 1496 1497 1498 1498 1495 1495 1495 1494 1493 1497 1507 1510 1510 1495 1492 1490 1491 1492 1493 1491
1480 1484 1488 1490 1492 1493 1495 1496 1496 1496 1496 1495 1494 1494 1494 1494 1496 1495 1495 1496 1498 1498 1498 1497 1497 1497 1497 1497 1498 1494 1498 1493 1495 1495 1495 1494 1496 1502 1507 1499 1491 1487 1488 1488 1488 1498 1489
1475 1479 1482 1485 1487 1490 1491 1492 1494 1495 1495 1494 1494 1494 1494 1494 1494 1494 1494 1495 1496 1497 1498 1497 1497 1497 1497 1500 1502 1501 1499 1496 1498 1494 1497 1504 1504 1506 1508 1507 1497 1485 1486 1488 1493 1496 1487
1470 1474 1477 1480 1483 1485 1487 1489 1491 1493 1493 1493 1493 1493 1493 1492 1493 1493 1493 1494 1495 1496 1498 1498 1499 1498 1499 1502 1503 1502 1502 1499 1499 1494 1495 1498 1506 1506 1506 1501 1498 1484 1488 1490 1484 1482 1485
1465 1468 1472 1475 1478 1480 1483 1485 1487 1490 1491 1491 1492 1492 1491 1492 1491 1491 1491 1492 1493 1494 1496 1496 1497 1496 1497 1501 1503 1503 1501 1503 1501 1499 1491 1498 1492 1492 1494 1491 1479 1480 1480 1480 1480 1482 1484
Wind_Speed
13 13 12 10 9 9 9 9 6 5 4 5 8 8 9 11 15 17 17 15 12 17 20 14 7 3 10 10 4 8 2 13 18 19 22 18 16 12 10 7 14 8 6 15 13 11 9
9 10 11 11 11 9 9 9 7 5 5 5 7 6 8 12 16 18 17 14 11 11 16 11 4 4 2 3 7 8 4 14 17 18 22 22 7 18 11 17 12 8 23 16 11 9 7
9 10 11 11 12 10 9 8 8 6 6 6 6 6 8 11 16 19 19 18 12 11 11 14 3 2 3 2 3 6 5 9 10 13 14 21 16 8 6 7 26 22 10 5 11 6 4
11 12 14 13 12 11 10 8 8 7 9 8 8 7 8 10 16 21 19 13 8 8 6 7 1 1 1 1 4 3 1 6 10 11 14 18 8 4 3 8 3 6 5 4 4 6 3
10 12 15 15 13 11 11 9 9 8 9 10 10 9 8 8 13 16 19 11 7 11 10 4 9 4 0 3 3 1 0 3 5 4 8 14 5 1 1 1 4 2 4 4 3 10 2
10 11 13 15 15 13 11 10 9 8 8 10 10 10 9 9 10 14 16 12 4 18 12 5 9 4 2 3 1 3 3 6 5 3 2 2 1 3 4 3 4 6 5 5 5 4 2
10 11 11 13 14 14 13 11 10 10 9 9 10 9 9 10 11 13 13 10 6 2 10 9 2 3 4 5 1 1 4 3 7 9 3 1 3 7 10 6 4 4 6 7 3 5 5
8 10 11 12 13 14 15 14 11 11 10 9 10 11 11 12 13 14 10 6 6 3 2 1 5 7 8 4 2 0 6 2 2 3 2 3 6 10 11 11 8 4 5 3 2 4 5
9 10 11 11 12 13 15 16 14 11 11 11 11 12 12 12 13 12 11 9 6 5 2 3 2 3 4 9 3 1 6 4 2 1 8 5 5 12 9 13 7 6 5 6 7 4 1
8 9 11 11 12 13 14 15 16 14 12 11 11 11 11 10 8 5 10 10 5 5 3 3 2 3 5 4 3 7 3 2 2 4 7 6 9 9 9 12 6 5 9 10 8 6 5
9 9 10 11 11 12 13 15 16 16 16 13 11 9 8 6 6 2 6 9 2 3 5 4 4 0 4 2 12 3 6 4 5 10 5 5 3 5 9 5 4 7 2 16 9 5 6
9 10 10 11 11 12 13 14 16 17 18 15 10 6 5 5 3 2 7 4 1 6 3 4 6 5 2 3 8 10 6 8 6 1 6 5 4 2 4 3 5 1 4 6 5 5 3
10 10 10 11 11 11 12 14 16 18 20 16 7 4 3 4 2 5 4 2 5 5 4 4 2 4 5 6 4 7 6 5 3 1 2 5 1 2 3 1 1 5 6 2 3 3 5
11 10 10 10 11 11 12 14 16 19 21 10 4 4 3 3 4 3 4 4 7 5 1 1 3 6 4 4 4 5 2 0 3 4 2 3 5 4 5 1 3 4 5 4 5 4 3
11 11 10 10 10 11 12 13 15 18 19 6 1 3 7 4 1 3 2 5 5 3 4 5 7 2 2 2 3 4 2 2 1 3 3 4 4 3 3 3 0 2 3 4 6 3 4
14 11 10 9 9 10 11 12 15 18 17 5 1 1 8 5 2 2 4 3 3 2 3 2 2 3 2 4 3 3 2 3 4 2 2 1 4 3 4 3 3 3 1 4 2 4 3
15 12 9 8 7 8 10 11 14 16 15 3 2 1 6 2 0 1 3 3 1 2 2 0 2 3 4 3 4 3 3 2 3 5 2 1 4 4 2 3 1 3 3 1 2 4 5
13 9 6 5 5 6 8 11 13 16 15 2 2 2 7 2 2 3 1 1 2 2 3 3 2 2 2 4 5 3 2 1 5 3 1 1 4 3 0 1 1 2 2 2 3 2 1
12 8 3 0 3 5 7 11 13 15 15 4 1 2 3 3 2 1 2 1 1 3 2 4 3 1 2 2 1 1 2 2 4 2 1 2 1 3 6 4 3 1 2 0 0 2 1
13 9 5 1 3 6 8 10 12 14 12 4 1 2 1 1 1 4 2 2 1 1 2 3 3 3 4 1 5 2 1 1 2 2 2 1 3 4 6 4 3 2 2 1 3 3 1
15 11 8 3 2 5 8 11 11 12 10 3 2 1 1 1 3 3 1 2 0 2 2 2 1 4 3 3 4 3 4 3 2 4 2 3 3 3 3 3 2 2 4 5 5 4 4
15 14 10 6 3 4 6 10 11 10 8 4 1 2 1 1 2 2 2 2 1 1 4 3 2 4 6 4 1 2 4 5 2 6 3 4 1 2 2 2 4 2 1 2 2 2 0
16 13 11 9 6 4 5 7 10 10 7 3 3 2 0 0 3 2 1 0 1 1 1 2 2 3 3 1 1 2 2 1 3 3 5 3 3 2 1 1 2 3 5 5 2 1 4
19 16 12 9 7 4 4 5 7 9 8 5 4 2 1 1 2 1 1 2 1 2 1 2 5 1 1 1 4 2 0 3 7 8 7 2 2 2 1 3 2 3 1 5 4 2 4
23 19 17 13 11 7 5 5 5 6 6 5 4 1 1 1 1 2 1 2 1 0 1 1 2 1 0 3 3 3 4 2 3 4 5 4 3 3 3 1 3 2 2 4 4 0 3
23 22 21 18 15 11 9 6 5 5 5 4 3 2 0 4 1 1 0 1 1 1 3 1 2 1 1 2 2 2 1 1 3 4 3 3 4 4 1 2 2 3 3 3 2 3 1
24 25 23 21 17 14 12 10 6 7 6 4 2 1 1 2 1 1 2 2 2 1 1 0 0 1 1 2 2 1 2 1 0 1 1 2 2 3 1 2 5 3 4 3 2 5 10
25 22 23 22 19 16 16 13 9 9 8 6 4 3 3 3 3 2 2 3 2 1 2 1 2 1 3 2 2 1 1 1 3 2 3 4 4 3 1 1 3 8 4 6 4 10 12
20 20 19 20 19 18 15 13 11 11 10 8 6 4 3 4 3 3 4 5 7 4 2 2 1 1 2 2 0 1 1 1 2 2 1 2 5 3 7 5 4 15 2 4 9 10 7
Wind_Direction
4 1 351 343 332 321 318 323 305 319 305 313 332 345 350 348 349 352 345 345 341 355 14 356 354 67 137 188 282 3 142 191 205 208 207 204 210 221 198 202 245 228 259 258 260 286 273
2 352 343 338 337 328 313 310 308 298 293 293 318 333 336 341 346 347 342 331 324 341 2 8 6 137 187 193 271 322 207 187 204 218 214 216 208 215 222 235 209 217 238 255 269 256 263
5 360 351 347 346 336 316 302 314 282 280 283 301 313 323 338 342 342 346 339 315 327 345 2 161 88 0 244 325 286 313 207 200 215 216 212 211 205 239 226 238 247 216 249 240 208 247
7 5 5 359 355 344 332 316 306 292 272 276 289 298 310 333 344 343 348 348 357 333 344 23 52 273 219 162 61 346 77 170 197 213 215 203 207 237 209 312 306 204 143 166 253 168 277
355 3 8 7 4 353 340 326 309 303 280 274 278 286 297 325 347 340 349 -0 44 29 27 14 1 228 327 130 76 269 99 210 196 143 94 218 247 76 77 105 6 102 177 166 222 192 109
341 353 1 9 8 360 347 337 317 311 296 278 276 279 291 313 335 337 347 6 51 45 26 49 8 57 9 303 159 241 163 129 147 165 315 107 16 47 35 89 197 187 166 176 175 205 133
331 343 353 1 7 7 357 342 327 316 305 289 276 272 278 299 318 337 338 353 348 38 52 89 119 121 299 235 244 232 177 126 122 154 155 38 81 194 217 220 242 156 167 172 229 200 136
319 329 342 351 357 359 4 352 334 318 309 298 286 278 275 286 305 317 330 344 335 244 310 28 144 105 53 114 126 240 152 124 140 160 134 64 240 212 210 248 250 254 192 159 10 167 133
308 318 328 339 348 353 356 360 351 329 312 298 290 286 285 293 302 306 320 336 336 212 227 213 179 201 149 90 57 155 161 156 85 279 182 182 263 211 220 263 242 244 151 187 168 167 299
308 315 319 325 337 345 353 357 358 352 326 311 295 291 293 301 302 291 306 329 335 193 74 277 178 143 173 144 81 106 145 147 45 224 175 269 278 177 217 246 174 224 197 190 158 120 173
314 320 321 319 327 337 346 353 357 353 346 323 309 293 295 305 302 282 317 325 327 146 47 260 75 258 187 86 145 197 151 174 216 142 177 242 227 243 240 191 219 207 38 170 166 117 101
306 318 325 324 324 330 339 348 353 353 349 338 310 300 293 292 302 290 331 314 119 45 303 9 157 169 133 16 185 162 207 242 294 293 189 225 178 176 193 203 226 284 120 64 63 94 61
295 309 321 327 329 331 337 344 350 351 349 342 328 307 297 272 281 300 307 164 39 91 273 328 275 180 205 193 205 179 192 176 187 117 340 16 55 329 72 270 190 53 65 45 37 35 196
285 300 311 321 328 332 338 344 350 351 351 352 9 26 350 306 290 270 165 57 72 255 306 269 268 287 235 149 205 205 239 255 217 191 138 114 346 2 349 81 216 95 133 143 158 167 208
275 289 299 309 322 331 340 346 351 353 354 3 36 45 33 17 315 184 169 58 195 240 311 334 319 269 291 254 209 172 106 54 28 15 124 121 340 293 134 216 310 240 55 140 108 40 84
273 280 289 297 311 328 340 349 355 358 357 14 98 67 19 18 47 161 78 180 195 235 298 319 312 352 41 322 41 114 107 333 334 2 140 173 75 336 325 335 0 72 179 63 14 134 107
268 274 281 287 303 324 337 352 358 4 3 37 103 352 8 342 332 81 117 222 203 214 258 161 299 316 346 354 350 51 14 346 333 310 310 345 98 289 355 358 132 36 41 19 139 141 148
251 258 266 282 302 327 341 355 1 6 8 30 106 46 360 359 38 61 101 334 331 293 266 290 246 293 297 3 15 63 108 261 335 290 8 88 126 108 117 300 59 87 138 134 118 258 88
216 226 211 232 2 354 359 1 0 6 9 19 102 80 18 18 92 340 259 183 350 359 1 337 320 338 304 316 53 106 120 264 345 32 201 340 60 77 349 355 7 46 212 206 194 71 12
203 201 196 195 39 25 14 11 5 1 8 22 34 42 94 2 82 143 169 246 223 300 284 304 282 309 329 291 15 83 48 282 327 346 293 341 72 145 169 179 147 162 176 71 94 80 239
198 203 208 214 323 9 10 13 14 3 6 43 33 151 111 321 341 12 89 302 3 354 326 278 21 23 312 349 351 37 352 345 304 327 326 121 104 77 66 50 71 145 163 181 173 183 143
201 213 219 229 283 333 350 7 12 11 1 42 80 105 160 208 277 5 16 338 51 173 11 348 70 353 34 90 17 321 335 26 50 325 14 359 116 97 53 49 69 27 321 204 268 312 327
209 220 227 224 245 305 327 355 11 17 14 50 69 71 83 7 347 82 271 70 38 13 350 41 317 350 44 133 316 307 350 61 44 24 350 49 110 68 47 321 27 325 227 192 177 160 150
209 215 222 235 241 261 311 332 4 18 25 31 38 93 116 304 96 156 149 71 74 19 335 7 6 8 347 18 295 276 157 62 47 21 40 50 74 80 184 17 46 283 111 212 165 210 193
213 214 219 230 247 257 277 297 334 8 21 19 24 54 143 149 92 81 75 118 151 216 50 91 5 53 128 329 46 20 348 352 21 29 12 46 93 64 98 181 261 285 263 136 176 1 205
220 225 239 238 241 253 257 263 300 334 349 0 9 36 130 128 286 278 136 175 215 247 350 335 4 129 10 34 58 76 2 238 343 356 354 28 78 108 103 68 182 226 205 159 143 298 154
228 231 239 239 238 245 250 257 264 292 310 315 293 261 177 162 133 187 143 162 317 320 136 240 267 47 359 56 51 80 295 175 140 276 214 29 15 135 176 216 285 230 178 123 132 233 170
226 235 242 239 240 234 237 244 259 274 283 286 265 236 216 192 213 227 208 212 208 203 143 165 52 356 36 55 117 271 109 286 358 231 182 181 148 207 136 141 328 171 127 176 191 147 167
214 221 230 239 241 244 232 234 231 252 264 265 255 234 210 234 184 220 264 250 236 230 186 191 185 192 169 89 17 95 337 31 176 283 330 272 190 200 176 218 237 192 260 197 171 166 172